Weather History for LBSF - March, 2014

Change the Weather History Date:

Tuesday, March 4, 2014

  Actual Average Record
Temperature  
Mean Temperature 40 °F -  
Max Temperature 48 °F 51 °F 75 °F (2008)
Min Temperature 33 °F 34 °F 19 °F (2005)
Degree Days  
Heating Degree Days 24    
Moisture  
Dew Point 38 °F    
Average Humidity 93    
Maximum Humidity 100    
Minimum Humidity 79    
Precipitation  
Precipitation 0.01 in 0.05 in - ()
Sea Level Pressure  
Sea Level Pressure 29.53 in    
Wind  
Wind Speed 5 mph ()    
Max Wind Speed 11 mph    
Max Gust Speed -    
Visibility 5.3 miles    
Events Rain , Snow    
Averages and records for this station are not official NWS values.
T = Trace of Precipitation, MM = Missing Value Source: Averaged Metar Reports

Daily Weather History Graph

Daily Weather History Graph

Search for Another Location

Airport or City:

Trip Planner

Search our weather history database for the weather conditions in past years. The results will help you decide how hot, cold, wet, or windy it might be!

Date:

Astronomy

Mar. 04, 2014 Rise Set
Actual Time 6:57 AM EET 6:19 PM EET
Civil Twilight 6:29 AM EET 6:47 PM EET
Nautical Twilight 5:56 AM EET 7:20 PM EET
Astronomical Twilight 5:24 AM EET 7:53 PM EET
Moon 8:26 AM EET (3/4) 10:12 PM EET (3/4)
Length of Visible Light 12h 18m
Length of Day
11h 21m
Waxing Crescent, 12% of the Moon is Illuminated
Mar 4
Waxing Crescent
Mar 8
First Quarter
Mar 16
Full
Mar 24
Last Quarter
Mar 30
New

Hourly Weather History & Observations

Time (EET) Temp. Windchill Dew Point Humidity Pressure Visibility Wind Dir Wind Speed Gust Speed Precip Events Conditions
12:00 AM 37.4 °F 32.2 °F 35.6 °F 93% 29.47 in 4.3 mi WSW 6.7 mph - N/A Rain , Snow Light Rain
12:30 AM 35.6 °F 30.0 °F 35.6 °F 100% 29.47 in 5.0 mi WSW 6.7 mph - N/A Rain , Snow Rain
1:00 AM 33.8 °F 27.9 °F 33.8 °F 100% 29.47 in 5.0 mi WSW 6.7 mph - N/A Rain , Snow Light Rain
1:30 AM 33.8 °F 27.9 °F 32.0 °F 93% 29.47 in 6.2 mi WSW 6.7 mph - N/A Rain , Snow Light Rain
2:00 AM 34 °F - 33 °F 96% 29.55 in 2 mi West 2.2 mph - - Rain Rain
2:00 AM 37.4 °F 30.9 °F 37.4 °F 100% 29.47 in 5.0 mi West 8.9 mph - N/A Rain Light Rain
2:30 AM 37.4 °F 32.2 °F 37.4 °F 100% 29.47 in 5.0 mi WSW 6.7 mph - N/A Rain Rain
3:00 AM 35.6 °F 31.8 °F 33.8 °F 93% 29.47 in 6.2 mi WSW 4.5 mph - N/A Rain Light Rain
3:30 AM 35.6 °F 31.8 °F 35.6 °F 100% 29.47 in 6.2 mi West 4.5 mph - N/A Rain Light Rain
4:00 AM 35.6 °F 30.0 °F 33.8 °F 93% 29.47 in 5.0 mi WNW 6.7 mph - N/A Rain Light Rain
4:30 AM 37.4 °F 32.2 °F 37.4 °F 100% 29.47 in 4.3 mi West 6.7 mph - N/A Rain Light Rain
5:00 AM 34 °F - 33 °F 94% 29.56 in 2 mi West 2.2 mph - - Snow Snow
5:00 AM 33.8 °F 29.7 °F 33.8 °F 100% 29.47 in 5.0 mi WNW 4.5 mph - N/A Rain , Snow Rain
5:30 AM 32.0 °F - 32.0 °F 100% 29.47 in - West 2.2 mph - N/A Snow Light Snow
6:00 AM 32.0 °F - 32.0 °F 100% 29.47 in 3.7 mi Calm Calm - N/A Rain , Snow Light Rain
6:30 AM 32.0 °F - 32.0 °F 100% 29.50 in 4.3 mi Variable 2.2 mph - N/A Rain , Snow Light Rain
7:00 AM 32.0 °F - 32.0 °F 100% 29.50 in 4.3 mi SSE 2.2 mph - N/A Rain Light Rain
7:30 AM 33.8 °F 29.7 °F 33.8 °F 100% 29.47 in 5.6 mi ESE 4.5 mph - N/A   Overcast
8:00 AM 34 °F - 33 °F 94% 29.58 in 6 mi Calm Calm - -   Light Ice Pellets
8:00 AM 33.8 °F 26.5 °F 33.8 °F 100% 29.47 in - East 8.9 mph - N/A   Mostly Cloudy
8:30 AM 33.8 °F 29.7 °F 33.8 °F 100% 29.50 in 6.2 mi East 4.5 mph - N/A   Overcast
9:00 AM 33.8 °F 27.9 °F 33.8 °F 100% 29.50 in 4.3 mi ESE 6.7 mph - N/A   Overcast
9:30 AM 35.6 °F 31.8 °F 35.6 °F 100% 29.50 in 5.6 mi Variable 4.5 mph - N/A   Overcast
10:00 AM 37.4 °F 33.9 °F 37.4 °F 100% 29.50 in 6.2 mi East 4.5 mph - N/A   Overcast
10:30 AM 39.2 °F - 37.4 °F 93% 29.53 in 6.2 mi Variable 2.2 mph - N/A   Overcast
11:00 AM 38 °F - 36 °F 90% 29.59 in 5 mi Calm Calm - -   Mist
11:00 AM 41.0 °F - 39.2 °F 93% 29.53 in 6.2 mi Variable 2.2 mph - N/A   Overcast
11:30 AM 41.0 °F - 39.2 °F 93% 29.53 in 5.6 mi Variable 2.2 mph - N/A   Overcast
12:00 PM 39.2 °F - 35.6 °F 87% 29.53 in 5.0 mi Variable 2.2 mph - N/A   Overcast
12:30 PM 41.0 °F 38.1 °F 39.2 °F 93% 29.56 in 3.7 mi Variable 4.5 mph - N/A   Overcast
1:00 PM 42.8 °F 40.2 °F 39.2 °F 87% 29.56 in 5.0 mi Variable 4.5 mph - N/A   Overcast
1:30 PM 42.8 °F - 39.2 °F 87% 29.56 in 6.2 mi Variable 2.2 mph - N/A   Overcast
2:00 PM 41 °F - 38 °F 86% 29.61 in 5 mi Calm Calm - -   Mist
2:00 PM 42.8 °F 40.2 °F 39.2 °F 87% 29.53 in 6.2 mi Variable 4.5 mph - N/A   Overcast
2:30 PM 44.6 °F 42.3 °F 39.2 °F 81% 29.53 in 6.2 mi Variable 4.5 mph - N/A   Overcast
3:00 PM 46.4 °F 43.0 °F 41.0 °F 81% 29.53 in 6.2 mi SE 6.7 mph - N/A   Mostly Cloudy
3:30 PM 46.4 °F 43.0 °F 41.0 °F 81% 29.53 in 6.2 mi ESE 6.7 mph - N/A   Mostly Cloudy
4:00 PM 48.2 °F - 42.8 °F 82% 29.53 in 6.2 mi SE 6.7 mph - N/A   Mostly Cloudy
4:30 PM 48.2 °F - 44.6 °F 87% 29.53 in 6.2 mi ESE 6.7 mph - N/A   Scattered Clouds
5:00 PM 43 °F - 39 °F 79% 29.59 in 5 mi East 4.5 mph - -   Mist
5:00 PM 46.4 °F 42.0 °F 42.8 °F 87% 29.53 in 6.2 mi ESE 8.9 mph - N/A   Partly Cloudy
5:30 PM 46.4 °F 43.0 °F 42.8 °F 87% 29.53 in 6.2 mi SE 6.7 mph - N/A   Mostly Cloudy
6:00 PM 44.6 °F 39.8 °F 41.0 °F 87% 29.53 in 6.2 mi East 8.9 mph - N/A   Mostly Cloudy
6:30 PM 42.8 °F 37.6 °F 41.0 °F 93% 29.56 in 6.2 mi ESE 8.9 mph - N/A   Mostly Cloudy
7:00 PM 42.8 °F 37.6 °F 41.0 °F 93% 29.56 in 6.2 mi ESE 8.9 mph - N/A   Mostly Cloudy
7:30 PM 42.8 °F 37.6 °F 41.0 °F 93% 29.56 in 6.2 mi ESE 8.9 mph - N/A   Overcast
8:00 PM 43 °F - 41 °F 90% 29.60 in 5 mi Calm Calm - -   Mist
8:00 PM 46.4 °F 41.2 °F 42.8 °F 87% 29.59 in 6.2 mi East 11.2 mph - N/A   Overcast
8:30 PM 46.4 °F 42.0 °F 42.8 °F 87% 29.59 in 5.0 mi East 8.9 mph - N/A   Overcast
9:00 PM 46.4 °F 42.0 °F 44.6 °F 93% 29.59 in 5.0 mi East 8.9 mph - N/A   Overcast
9:30 PM 46.4 °F 42.0 °F 44.6 °F 93% 29.59 in 5.0 mi East 8.9 mph - N/A   Overcast
10:00 PM 44.6 °F 40.8 °F 44.6 °F 100% 29.62 in 4.3 mi East 6.7 mph - N/A   Overcast
10:30 PM 46.4 °F 44.4 °F 44.6 °F 93% 29.62 in 5.0 mi ESE 4.5 mph - N/A   Overcast
11:00 PM 43 °F - 42 °F 93% 29.63 in 6 mi Calm Calm - -   Mostly Cloudy
11:00 PM 48.2 °F - 46.4 °F 93% 29.62 in 5.0 mi East 6.7 mph - N/A   Overcast
11:30 PM 48.2 °F - 46.4 °F 93% 29.62 in 5.0 mi ESE 6.7 mph - N/A   Overcast